KC9SDK Weather Reports


Display with metric or nautical units.
time (UTC)temp
F
wind
direction
speed
MPH
gust
MPH
rain 1hr
in
rain 24hr
in
rain mn
in
humidity
%
barometer
mb
20260505173042 54 296 2.0 16.0 0.00 0.00 0.00 41 1011.1
20260505171542 55 319 3.0 11.0 0.00 0.00 0.00 39 1011.1
20260505170040 55 264 2.0 12.0 0.00 0.00 0.00 39 1010.9
20260505164547 54 286 3.0 15.0 0.00 0.00 0.00 41 1011.2
20260505163050 54 229 2.0 17.0 0.00 0.00 0.00 43 1010.8
20260505161539 53 260 2.0 11.0 0.00 0.00 0.00 41 1010.9
20260505153037 51 342 1.0 17.0 0.00 0.00 0.00 49 1011.0
20260505151536 51 271 2.0 12.0 0.00 0.00 0.00 47 1010.8
20260505124530 46 256 0.0 0.0 0.00 0.00 0.00 59 1011.2
20260505123026 46 251 0.0 1.0 0.00 0.00 0.00 60 1010.9
20260505121525 45 269 0.0 1.0 0.00 0.00 0.00 64 1010.9
20260505120023 42 244 0.0 0.0 0.00 0.00 0.00 67 1010.5
20260505114521 40 248 0.0 0.0 0.00 0.00 0.00 73 1010.2
20260505113019 39 329 0.0 0.0 0.00 0.00 0.00 75 1009.3
20260505111519 40 229 0.0 0.0 0.00 0.00 0.00 71 1008.9
20260505101604 44 234 0.0 0.0 0.00 0.00 0.00 62 1008.8
20260505100058 44 244 0.0 0.0 0.00 0.00 0.00 58 1008.7
20260505094556 45 269 0.0 0.0 0.00 0.00 0.00 55 1008.6
20260505093053 46 266 0.0 0.0 0.00 0.00 0.00 54 1008.4
20260505091552 46 289 0.0 0.0 0.00 0.00 0.00 54 1008.5
20260505090049 46 298 0.0 0.0 0.00 0.00 0.00 54 1008.5
20260505084547 47 297 0.0 0.0 0.00 0.00 0.00 53 1008.3
20260505083046 47 324 0.0 6.0 0.00 0.00 0.00 53 1007.9
20260505081549 47 337 0.0 9.0 0.00 0.00 0.00 52 1007.8
20260505080044 48 327 2.0 13.0 0.00 0.00 0.00 51 1007.4
20260505074537 48 339 2.0 16.0 0.00 0.00 0.00 51 1007.0
20260505073044 48 336 3.0 21.0 0.00 0.00 0.00 52 1006.7
20260505071546 49 355 5.0 15.0 0.00 0.00 0.00 52 1006.6
20260505070029 50 333 3.0 20.0 0.00 0.00 0.00 52 1006.4
20260505064527 50 5 4.0 16.0 0.00 0.00 0.00 51 1006.1
20260505063025 51 5 3.0 18.0 0.00 0.00 0.00 52 1006.0
20260505061520 51 360 3.0 14.0 0.00 0.00 0.00 53 1006.0
20260505060018 52 344 2.0 17.0 0.00 0.00 0.00 54 1006.0
20260505054515 53 360 6.0 17.0 0.00 0.00 0.00 53 1005.8
20260505053012 53 334 6.0 13.0 0.00 0.00 0.00 54 1005.7
20260505051509 55 350 3.0 14.0 0.00 0.00 0.00 51 1005.1
20260505041504 56 340 3.0 15.0 0.00 0.00 0.00 49 1004.6
20260505040005 57 333 3.0 10.0 0.00 0.00 0.00 48 1004.2
20260505034502 58 325 2.0 11.0 0.00 0.00 0.00 47 1004.2
20260505033001 58 330 2.0 6.0 0.00 0.00 0.00 46 1004.0
20260505031603 58 5 1.0 10.0 0.00 0.00 0.00 45 1003.7
20260505030105 58 292 1.0 5.0 0.00 0.00 0.00 44 1003.7
20260505024601 59 302 0.0 0.0 0.00 0.00 0.00 42 1003.5
20260505023109 60 284 2.0 8.0 0.00 0.00 0.00 40 1002.9
20260505021601 60 290 3.0 10.0 0.00 0.00 0.00 38 1002.3
20260505014559 61 275 3.0 13.0 0.00 0.00 0.00 37 1001.4
20260505013059 62 287 2.0 15.0 0.00 0.00 0.00 37 1001.7
20260505011557 63 273 1.0 14.0 0.00 0.00 0.00 36 1001.4
20260505004554 64 312 1.0 22.0 0.00 0.00 0.00 39 1000.4
20260505003059 66 294 3.0 13.0 0.00 0.00 0.00 37 1000.4
20260505001553 67 299 4.0 17.0 0.00 0.00 0.00 37 1000.1
20260504234552 70 279 2.0 22.0 0.00 0.00 0.00 36 999.6
20260504233054 73 334 3.0 13.0 0.00 0.00 0.00 37 999.4
20260504231551 74 314 4.0 11.0 0.00 0.00 0.00 37 999.1
20260504230051 74 316 2.0 16.0 0.00 0.00 0.00 38 999.0
20260504224551 75 350 3.0 14.0 0.00 0.00 0.00 39 998.8
20260504223050 78 250 4.0 17.0 0.00 0.00 0.00 40 998.4
20260504221551 78 241 3.0 20.0 0.00 0.00 0.00 40 998.2
20260504220108 79 297 4.0 16.0 0.00 0.00 0.00 39 997.9
20260504214553 80 288 3.0 12.0 0.00 0.00 0.00 38 997.9
20260504213053 80 331 3.0 13.0 0.00 0.00 0.00 37 997.6
20260504211553 79 267 3.0 14.0 0.00 0.00 0.00 36 997.6
20260504210044 79 240 3.0 15.0 0.00 0.00 0.00 39 997.7
20260504204543 79 281 4.0 21.0 0.00 0.00 0.00 36 997.8
20260504203042 79 225 7.0 23.0 0.00 0.00 0.00 36 997.9
20260504201540 80 225 3.0 18.0 0.00 0.00 0.00 34 998.2
20260504200043 80 221 2.0 15.0 0.00 0.00 0.00 37 998.1
20260504194541 79 226 6.0 15.0 0.00 0.00 0.00 36 998.3
20260504193034 79 239 3.0 15.0 0.00 0.00 0.00 36 998.4
20260504191548 79 248 5.0 16.0 0.00 0.00 0.00 38 998.6
20260504190032 80 241 5.0 16.0 0.00 0.00 0.00 39 998.8
20260504184533 79 249 7.0 23.0 0.00 0.00 0.00 38 999.0
20260504183038 77 224 6.0 24.0 0.00 0.00 0.00 41 999.0
20260504181527 78 231 3.0 22.0 0.00 0.00 0.00 39 999.2
20260504180024 77 265 2.0 15.0 0.00 0.00 0.00 39 999.2
20260504174523 77 231 4.0 17.0 0.00 0.00 0.00 38 999.3